Time,TemperatureF,DewpointF,PressureIn,WindDirection,WindDirectionDegrees,WindSpeedMPH,WindSpeedGustMPH,Humidity,HourlyPrecipIn,Conditions,Clouds,dailyrainin,SoftwareType,DateUTC
2013-09-17 00:13:00,56.0,55.0,27.06,South,173,12.0,14.0,98,0.00,,,-99.99,,2013-09-17 05:13:00,
2013-09-17 00:18:00,56.0,55.0,27.06,South,169,12.0,14.0,98,0.00,,,-99.99,,2013-09-17 05:18:00,
2013-09-17 00:23:00,56.0,55.0,27.06,South,180,10.0,12.0,97,0.00,,,-99.99,,2013-09-17 05:23:00,
2013-09-17 00:38:00,56.0,55.0,27.05,South,172,11.0,13.0,97,0.00,,,-99.99,,2013-09-17 05:38:00,
2013-09-17 00:43:00,56.0,55.0,27.05,South,169,9.0,10.0,97,0.00,,,-99.99,,2013-09-17 05:43:00,
2013-09-17 00:48:00,56.0,55.0,27.05,SSE,148,9.0,12.0,97,0.00,,,-99.99,,2013-09-17 05:48:00,
2013-09-17 00:58:00,56.0,55.0,27.05,South,169,10.0,11.0,97,0.00,,,-99.99,,2013-09-17 05:58:00,
2013-09-17 01:03:00,57.0,57.0,27.05,South,173,9.0,10.0,98,0.00,,,-99.99,,2013-09-17 06:03:00,
2013-09-17 01:08:00,57.0,57.0,27.05,South,183,10.0,11.0,98,0.00,,,-99.99,,2013-09-17 06:08:00,
2013-09-17 01:13:00,57.0,57.0,27.05,South,172,11.0,13.0,98,0.00,,,-99.99,,2013-09-17 06:13:00,
2013-09-17 01:28:00,57.0,57.0,27.04,South,173,11.0,13.0,98,0.00,,,-99.99,,2013-09-17 06:28:00,
2013-09-17 01:33:00,57.0,57.0,27.04,SSE,166,10.0,11.0,98,0.00,,,-99.99,,2013-09-17 06:33:00,
2013-09-17 01:38:00,57.0,57.0,27.04,SSE,165,11.0,12.0,98,0.00,,,-99.99,,2013-09-17 06:38:00,
2013-09-17 01:48:00,57.0,57.0,27.04,South,171,11.0,13.0,98,0.00,,,-99.99,,2013-09-17 06:48:00,
2013-09-17 01:53:00,57.0,57.0,27.03,SSE,165,11.0,13.0,99,0.00,,,-99.99,,2013-09-17 06:53:00,
2013-09-17 01:58:00,57.0,57.0,27.04,South,176,10.0,12.0,98,0.00,,,-99.99,,2013-09-17 06:58:00,
2013-09-17 02:03:00,57.0,57.0,27.04,South,175,10.0,12.0,99,0.00,,,-99.99,,2013-09-17 07:03:00,
2013-09-17 02:13:00,57.0,57.0,27.03,South,171,10.0,11.0,99,0.00,,,-99.99,,2013-09-17 07:13:00,
2013-09-17 02:18:00,57.0,57.0,27.03,SSE,165,9.0,11.0,98,0.00,,,-99.99,,2013-09-17 07:18:00,
2013-09-17 02:23:00,57.0,55.0,27.03,South,173,10.0,11.0,97,0.00,,,-99.99,,2013-09-17 07:23:00,
2013-09-17 02:28:00,57.0,55.0,27.03,South,169,10.0,11.0,97,0.00,,,-99.99,,2013-09-17 07:28:00,
2013-09-17 02:43:00,57.0,57.0,27.01,SE,141,6.0,8.0,100,0.00,,,-99.99,,2013-09-17 07:43:00,
2013-09-17 02:48:00,57.0,57.0,27.02,North,0,0.0,0.0,100,0.00,,,-99.99,,2013-09-17 07:48:00,
2013-09-17 02:53:00,57.0,57.0,27.02,SSE,154,7.0,9.0,99,0.00,,,-99.99,,2013-09-17 07:53:00,
2013-09-17 03:03:00,57.0,57.0,27.01,SSE,164,9.0,10.0,98,0.00,,,-99.99,,2013-09-17 08:03:00,
2013-09-17 03:08:00,57.0,57.0,27.01,SSE,158,7.0,9.0,98,0.00,,,-99.99,,2013-09-17 08:08:00,
2013-09-17 03:13:00,57.0,57.0,27.01,North,0,0.0,0.0,98,0.00,,,-99.99,,2013-09-17 08:13:00,
2013-09-17 03:18:00,57.0,57.0,27.01,North,0,0.0,0.0,98,0.00,,,-99.99,,2013-09-17 08:18:00,
2013-09-17 03:23:00,57.0,57.0,27.01,North,0,0.0,0.0,99,0.00,,,-99.99,,2013-09-17 08:23:00,
2013-09-17 03:33:00,58.0,57.0,27.01,North,0,0.0,0.0,98,0.00,,,-99.99,,2013-09-17 08:33:00,
2013-09-17 03:38:00,58.0,57.0,27.00,North,0,0.0,0.0,98,0.00,,,-99.99,,2013-09-17 08:38:00,
2013-09-17 03:43:00,58.0,57.0,27.00,North,0,0.0,0.0,98,0.00,,,-99.99,,2013-09-17 08:43:00,
2013-09-17 03:48:00,58.0,57.0,27.00,North,0,0.0,0.0,99,0.00,,,-99.99,,2013-09-17 08:48:00,
2013-09-17 03:58:00,58.0,57.0,26.99,North,0,0.0,0.0,98,0.00,,,-99.99,,2013-09-17 08:58:00,
2013-09-17 04:03:00,58.0,57.0,26.99,North,0,0.0,0.0,99,0.00,,,-99.99,,2013-09-17 09:03:00,
2013-09-17 04:08:00,58.0,57.0,26.99,North,0,0.0,0.0,98,0.00,,,-99.99,,2013-09-17 09:08:00,
2013-09-17 04:23:00,58.0,57.0,26.99,North,0,0.0,0.0,98,0.00,,,-99.99,,2013-09-17 09:23:00,
2013-09-17 04:28:00,58.0,57.0,26.99,North,0,0.0,0.0,98,0.00,,,-99.99,,2013-09-17 09:28:00,
2013-09-17 04:33:00,58.0,57.0,26.99,North,0,0.0,0.0,99,0.00,,,-99.99,,2013-09-17 09:33:00,
2013-09-17 04:48:00,58.0,57.0,26.98,SSE,168,11.0,12.0,99,0.00,,,-99.99,,2013-09-17 09:48:00,
2013-09-17 04:53:00,58.0,57.0,26.97,South,171,12.0,14.0,98,0.00,,,-99.99,,2013-09-17 09:53:00,
2013-09-17 04:58:00,58.0,57.0,26.97,SSE,165,12.0,13.0,97,0.00,,,-99.99,,2013-09-17 09:58:00,
2013-09-17 05:13:00,58.0,57.0,26.97,SSE,164,11.0,13.0,98,0.00,,,-99.99,,2013-09-17 10:13:00,
2013-09-17 05:18:00,58.0,57.0,26.97,South,171,10.0,12.0,98,0.00,,,-99.99,,2013-09-17 10:18:00,
2013-09-17 05:23:00,58.0,57.0,26.96,SSE,161,11.0,12.0,98,0.00,,,-99.99,,2013-09-17 10:23:00,
2013-09-17 05:28:00,58.0,57.0,26.96,South,185,11.0,12.0,98,0.00,,,-99.99,,2013-09-17 10:28:00,
2013-09-17 05:38:00,58.0,57.0,26.96,South,172,11.0,12.0,98,0.00,,,-99.99,,2013-09-17 10:38:00,
2013-09-17 05:43:00,58.0,57.0,26.96,SSE,168,11.0,13.0,98,0.00,,,-99.99,,2013-09-17 10:43:00,
2013-09-17 05:48:00,58.0,57.0,26.96,South,172,11.0,13.0,99,0.00,,,-99.99,,2013-09-17 10:48:00,
2013-09-17 05:53:00,58.0,57.0,26.96,South,172,13.0,15.0,99,0.00,,,-99.99,,2013-09-17 10:53:00,
2013-09-17 06:03:00,58.0,57.0,26.95,South,172,13.0,14.0,99,0.00,,,-99.99,,2013-09-17 11:03:00,
2013-09-17 06:08:00,58.0,57.0,26.95,South,171,13.0,15.0,99,0.00,,,-99.99,,2013-09-17 11:08:00,
2013-09-17 06:13:00,58.0,57.0,26.95,SSE,164,14.0,16.0,98,0.00,,,-99.99,,2013-09-17 11:13:00,
2013-09-17 06:23:00,58.0,57.0,26.95,SSE,164,13.0,15.0,100,0.00,,,-99.99,,2013-09-17 11:23:00,
2013-09-17 06:28:00,58.0,57.0,26.95,SSE,162,12.0,13.0,100,0.00,,,-99.99,,2013-09-17 11:28:00,
2013-09-17 06:33:00,58.0,57.0,26.95,SSE,154,12.0,14.0,100,0.00,,,-99.99,,2013-09-17 11:33:00,
2013-09-17 06:38:00,58.0,57.0,26.95,SSE,155,12.0,14.0,100,0.00,,,-99.99,,2013-09-17 11:38:00,
2013-09-17 06:43:00,58.0,57.0,26.95,SSE,155,11.0,13.0,100,0.00,,,-99.99,,2013-09-17 11:43:00,
2013-09-17 06:53:00,58.0,57.0,26.95,SSE,151,11.0,14.0,100,0.00,,,-99.99,,2013-09-17 11:53:00,
2013-09-17 06:58:00,58.0,57.0,26.95,SSE,151,11.0,13.0,100,0.00,,,-99.99,,2013-09-17 11:58:00,
2013-09-17 07:03:00,58.0,57.0,26.94,SSE,164,11.0,13.0,100,0.00,,,-99.99,,2013-09-17 12:03:00,
2013-09-17 07:08:00,58.0,57.0,26.94,SSE,155,11.0,13.0,100,0.00,,,-99.99,,2013-09-17 12:08:00,
2013-09-17 07:18:00,58.0,57.0,26.94,SSE,147,12.0,14.0,100,0.00,,,-99.99,,2013-09-17 12:18:00,
2013-09-17 07:23:00,58.0,57.0,26.94,SSE,154,12.0,14.0,100,0.00,,,-99.99,,2013-09-17 12:23:00,
2013-09-17 07:28:00,58.0,57.0,26.94,SSE,166,11.0,13.0,100,0.00,,,-99.99,,2013-09-17 12:28:00,
2013-09-17 07:43:00,58.0,57.0,26.94,SSE,152,12.0,15.0,100,0.00,,,-99.99,,2013-09-17 12:43:00,
2013-09-17 07:48:00,58.0,57.0,26.94,SSE,149,12.0,15.0,100,0.00,,,-99.99,,2013-09-17 12:48:00,
2013-09-17 07:53:00,59.0,59.0,26.94,SSE,148,12.0,13.0,100,0.00,,,-99.99,,2013-09-17 12:53:00,
2013-09-17 08:03:00,59.0,59.0,26.94,SSE,152,13.0,15.0,100,0.00,,,-99.99,,2013-09-17 13:03:00,
2013-09-17 08:08:00,59.0,59.0,26.94,SSE,162,13.0,15.0,100,0.00,,,-99.99,,2013-09-17 13:08:00,
2013-09-17 08:13:00,59.0,59.0,26.94,SSE,154,9.0,12.0,100,0.00,,,-99.99,,2013-09-17 13:13:00,
2013-09-17 08:18:00,59.0,59.0,26.94,SSE,148,9.0,12.0,100,0.00,,,-99.99,,2013-09-17 13:18:00,
2013-09-17 08:28:00,59.0,59.0,26.94,SSE,162,11.0,13.0,100,0.00,,,-99.99,,2013-09-17 13:28:00,
2013-09-17 08:33:00,59.0,59.0,26.94,SSE,151,9.0,12.0,100,0.00,,,-99.99,,2013-09-17 13:33:00,
2013-09-17 08:38:00,59.0,59.0,26.94,SSE,148,11.0,14.0,100,0.00,,,-99.99,,2013-09-17 13:38:00,
2013-09-17 08:43:00,59.0,59.0,26.94,SSE,147,10.0,13.0,100,0.00,,,-99.99,,2013-09-17 13:43:00,
2013-09-17 08:58:00,60.0,61.0,26.93,SSE,152,10.0,13.0,100,0.00,,,-99.99,,2013-09-17 13:58:00,
2013-09-17 09:03:00,60.0,61.0,26.94,North,0,0.0,0.0,100,0.00,,,-99.99,,2013-09-17 14:03:00,
2013-09-17 09:08:00,60.0,61.0,26.93,SSE,157,11.0,13.0,100,0.00,,,-99.99,,2013-09-17 14:08:00,
2013-09-17 09:18:00,60.0,61.0,26.93,SSE,161,10.0,12.0,100,0.00,,,-99.99,,2013-09-17 14:18:00,
2013-09-17 09:23:00,60.0,61.0,26.93,SSE,162,10.0,13.0,100,0.00,,,-99.99,,2013-09-17 14:23:00,
2013-09-17 09:28:00,60.0,61.0,26.93,SSE,165,10.0,13.0,100,0.00,,,-99.99,,2013-09-17 14:28:00,
2013-09-17 09:33:00,60.0,61.0,26.93,SSE,165,10.0,12.0,100,0.00,,,-99.99,,2013-09-17 14:33:00,
2013-09-17 09:43:00,61.0,61.0,26.93,SSE,161,11.0,13.0,100,0.00,,,-99.99,,2013-09-17 14:43:00,
2013-09-17 09:48:00,61.0,61.0,26.93,SSE,158,11.0,13.0,100,0.00,,,-99.99,,2013-09-17 14:48:00,
2013-09-17 09:53:00,61.0,61.0,26.93,SSE,158,10.0,13.0,100,0.00,,,-99.99,,2013-09-17 14:53:00,
2013-09-17 09:58:00,61.0,61.0,26.92,SSE,154,12.0,13.0,100,0.00,,,-99.99,,2013-09-17 14:58:00,
2013-09-17 10:13:00,62.0,63.0,26.92,SSE,154,10.0,12.0,100,0.00,,,-99.99,,2013-09-17 15:13:00,
2013-09-17 10:18:00,62.0,63.0,26.92,South,169,11.0,13.0,100,0.00,,,-99.99,,2013-09-17 15:18:00,
2013-09-17 10:23:00,62.0,63.0,26.92,SSE,148,11.0,13.0,100,0.00,,,-99.99,,2013-09-17 15:23:00,
2013-09-17 10:38:00,63.0,63.0,26.92,North,0,0.0,0.0,98,0.00,,,-99.99,,2013-09-17 15:38:00,
2013-09-17 10:43:00,63.0,63.0,26.92,SSE,149,8.0,10.0,99,0.00,,,-99.99,,2013-09-17 15:43:00,
2013-09-17 10:48:00,64.0,64.0,26.92,SSE,161,9.0,11.0,100,0.00,,,-99.99,,2013-09-17 15:48:00,
2013-09-17 11:03:00,64.0,64.0,26.91,South,172,11.0,13.0,100,0.00,,,-99.99,,2013-09-17 16:03:00,
2013-09-17 11:08:00,65.0,64.0,26.91,SSE,168,10.0,11.0,100,0.00,,,-99.99,,2013-09-17 16:08:00,
2013-09-17 11:18:00,65.0,64.0,26.91,SSE,162,11.0,13.0,100,0.00,,,-99.99,,2013-09-17 16:18:00,
2013-09-17 11:23:00,65.0,64.0,26.91,South,172,10.0,12.0,100,0.00,,,-99.99,,2013-09-17 16:23:00,
2013-09-17 11:28:00,66.0,66.0,26.90,SSE,165,10.0,12.0,100,0.00,,,-99.99,,2013-09-17 16:28:00,
2013-09-17 11:33:00,66.0,66.0,26.90,South,178,10.0,13.0,100,0.00,,,-99.99,,2013-09-17 16:33:00,
2013-09-17 11:48:00,67.0,66.0,26.90,South,189,11.0,13.0,99,0.00,,,-99.99,,2013-09-17 16:48:00,
2013-09-17 11:53:00,68.0,68.0,26.90,South,185,12.0,14.0,99,0.00,,,-99.99,,2013-09-17 16:53:00,
2013-09-17 12:08:00,69.0,68.0,26.89,South,189,13.0,17.0,98,0.00,,,-99.99,,2013-09-17 17:08:00,
2013-09-17 12:13:00,69.0,68.0,26.89,South,186,10.0,12.0,97,0.00,,,-99.99,,2013-09-17 17:13:00,
2013-09-17 12:23:00,71.0,70.0,26.89,South,186,10.0,13.0,95,0.00,,,-99.99,,2013-09-17 17:23:00,
2013-09-17 12:28:00,72.0,70.0,26.88,South,188,11.0,14.0,94,0.00,,,-99.99,,2013-09-17 17:28:00,
2013-09-17 12:33:00,73.0,72.0,26.88,South,186,12.0,15.0,93,0.00,,,-99.99,,2013-09-17 17:33:00,
2013-09-17 12:43:00,74.0,72.0,26.88,SSW,195,13.0,15.0,90,0.00,,,-99.99,,2013-09-17 17:43:00,
2013-09-17 12:48:00,74.0,72.0,26.88,SSW,197,10.0,14.0,90,0.00,,,-99.99,,2013-09-17 17:48:00,
2013-09-17 12:58:00,76.0,72.0,26.87,South,190,10.0,13.0,85,0.00,,,-99.99,,2013-09-17 17:58:00,
2013-09-17 13:03:00,76.0,70.0,26.87,SSW,196,11.0,13.0,83,0.00,,,-99.99,,2013-09-17 18:03:00,
2013-09-17 13:13:00,77.0,72.0,26.86,SSW,196,11.0,16.0,81,0.00,,,-99.99,,2013-09-17 18:13:00,
2013-09-17 16:28:00,86.0,68.0,26.78,South,182,16.0,18.0,56,0.00,,,-99.99,,2013-09-17 21:28:00,
2013-09-17 16:43:00,86.0,66.0,26.77,SSW,192,15.0,17.0,53,0.00,,,-99.99,,2013-09-17 21:43:00,
2013-09-17 16:53:00,87.0,70.0,26.77,SSW,193,15.0,19.0,56,0.00,,,-99.99,,2013-09-17 21:53:00,
2013-09-17 16:58:00,87.0,68.0,26.77,SSW,202,14.0,17.0,55,0.00,,,-99.99,,2013-09-17 21:58:00,
2013-09-17 17:08:00,87.0,68.0,26.77,South,180,14.0,17.0,52,0.00,,,-99.99,,2013-09-17 22:08:00,
2013-09-17 17:23:00,87.0,68.0,26.76,South,188,13.0,16.0,53,0.00,,,-99.99,,2013-09-17 22:23:00,
2013-09-17 17:33:00,87.0,68.0,26.76,SSW,196,16.0,19.0,53,0.00,,,-99.99,,2013-09-17 22:33:00,
2013-09-17 17:38:00,87.0,70.0,26.76,South,172,17.0,19.0,56,0.00,,,-99.99,,2013-09-17 22:38:00,
2013-09-17 17:48:00,87.0,68.0,26.76,SSW,203,15.0,17.0,52,0.00,,,-99.99,,2013-09-17 22:48:00,
2013-09-17 17:53:00,87.0,68.0,26.76,SSW,193,16.0,19.0,52,0.00,,,-99.99,,2013-09-17 22:53:00,
2013-09-17 18:03:00,86.0,68.0,26.76,SSW,193,13.0,17.0,54,0.00,,,-99.99,,2013-09-17 23:03:00,
2013-09-17 18:13:00,86.0,66.0,26.76,South,180,14.0,17.0,52,0.00,,,-99.99,,2013-09-17 23:13:00,
2013-09-17 18:18:00,86.0,68.0,26.76,SSW,195,13.0,16.0,55,0.00,,,-99.99,,2013-09-17 23:18:00,
2013-09-17 18:28:00,86.0,68.0,26.76,SSW,192,13.0,16.0,56,0.00,,,-99.99,,2013-09-17 23:28:00,
2013-09-17 18:33:00,86.0,68.0,26.76,South,180,14.0,16.0,54,0.00,,,-99.99,,2013-09-17 23:33:00,
2013-09-17 18:43:00,85.0,68.0,26.76,South,190,13.0,16.0,56,0.00,,,-99.99,,2013-09-17 23:43:00,
2013-09-17 18:53:00,85.0,64.0,26.76,SSW,192,13.0,18.0,51,0.00,,,-99.99,,2013-09-17 23:53:00,
2013-09-17 18:58:00,84.0,64.0,26.76,SSW,197,15.0,18.0,51,0.00,,,-99.99,,2013-09-17 23:58:00,
2013-09-17 19:08:00,84.0,66.0,26.76,SSW,200,10.0,14.0,54,0.00,,,-99.99,,2013-09-18 00:08:00,
2013-09-17 19:13:00,83.0,64.0,26.76,SSW,200,12.0,15.0,55,0.00,,,-99.99,,2013-09-18 00:13:00,
2013-09-17 19:23:00,82.0,64.0,26.76,South,189,11.0,13.0,55,0.00,,,-99.99,,2013-09-18 00:23:00,
2013-09-17 19:33:00,81.0,64.0,26.76,South,189,10.0,11.0,56,0.00,,,-99.99,,2013-09-18 00:33:00,
2013-09-17 19:38:00,80.0,63.0,26.76,South,183,9.0,10.0,57,0.00,,,-99.99,,2013-09-18 00:38:00,
2013-09-17 19:48:00,78.0,63.0,26.76,South,186,7.0,8.0,59,0.00,,,-99.99,,2013-09-18 00:48:00,
2013-09-17 19:53:00,77.0,63.0,26.76,South,185,8.0,9.0,61,0.00,,,-99.99,,2013-09-18 00:53:00,
2013-09-17 19:58:00,76.0,63.0,26.76,SSW,200,7.0,8.0,62,0.00,,,-99.99,,2013-09-18 00:58:00,
2013-09-17 20:03:00,76.0,63.0,26.76,South,183,6.0,6.0,64,0.00,,,-99.99,,2013-09-18 01:03:00,
2013-09-17 20:08:00,75.0,63.0,26.76,South,183,6.0,6.0,65,0.00,,,-99.99,,2013-09-18 01:08:00,
2013-09-17 20:13:00,74.0,63.0,26.76,South,175,7.0,7.0,66,0.00,,,-99.99,,2013-09-18 01:13:00,
2013-09-17 20:18:00,74.0,63.0,26.76,South,178,7.0,7.0,69,0.00,,,-99.99,,2013-09-18 01:18:00,
2013-09-17 20:23:00,73.0,63.0,26.76,South,178,6.0,6.0,70,0.00,,,-99.99,,2013-09-18 01:23:00,
2013-09-17 20:33:00,72.0,63.0,26.76,South,180,6.0,6.0,72,0.00,,,-99.99,,2013-09-18 01:33:00,
2013-09-17 20:38:00,72.0,63.0,26.76,South,176,6.0,6.0,72,0.00,,,-99.99,,2013-09-18 01:38:00,
2013-09-17 20:48:00,72.0,63.0,26.76,South,173,6.0,6.0,73,0.00,,,-99.99,,2013-09-18 01:48:00,
2013-09-17 20:53:00,72.0,63.0,26.76,South,173,6.0,6.0,73,0.00,,,-99.99,,2013-09-18 01:53:00,
2013-09-17 21:08:00,71.0,63.0,26.77,South,173,7.0,7.0,75,0.00,,,-99.99,,2013-09-18 02:08:00,
2013-09-17 21:18:00,71.0,63.0,26.77,SSE,164,7.0,7.0,76,0.00,,,-99.99,,2013-09-18 02:18:00,
2013-09-17 21:23:00,71.0,63.0,26.77,SSE,158,7.0,7.0,77,0.00,,,-99.99,,2013-09-18 02:23:00,
2013-09-17 21:28:00,71.0,63.0,26.77,SSE,158,7.0,8.0,77,0.00,,,-99.99,,2013-09-18 02:28:00,
2013-09-17 21:33:00,71.0,63.0,26.77,SSE,152,8.0,8.0,77,0.00,,,-99.99,,2013-09-18 02:33:00,
2013-09-17 21:38:00,71.0,64.0,26.76,SE,142,8.0,9.0,78,0.00,,,-99.99,,2013-09-18 02:38:00,
2013-09-17 21:43:00,70.0,64.0,26.77,SE,137,9.0,9.0,81,0.00,,,-99.99,,2013-09-18 02:43:00,
2013-09-17 21:48:00,70.0,64.0,26.77,SE,140,9.0,9.0,81,0.00,,,-99.99,,2013-09-18 02:48:00,
2013-09-17 21:53:00,70.0,64.0,26.76,SE,140,8.0,9.0,81,0.00,,,-99.99,,2013-09-18 02:53:00,
2013-09-17 22:08:00,69.0,64.0,26.76,SSE,159,7.0,9.0,84,0.00,,,-99.99,,2013-09-18 03:08:00,
2013-09-17 22:13:00,69.0,64.0,26.76,SSE,157,7.0,8.0,85,0.00,,,-99.99,,2013-09-18 03:13:00,
2013-09-17 22:28:00,70.0,64.0,26.76,SSE,152,7.0,8.0,84,0.00,,,-99.99,,2013-09-18 03:28:00,
2013-09-17 22:33:00,70.0,64.0,26.76,SE,145,7.0,8.0,84,0.00,,,-99.99,,2013-09-18 03:33:00,
2013-09-17 22:48:00,69.0,63.0,26.76,SSE,149,8.0,9.0,82,0.00,,,-99.99,,2013-09-18 03:48:00,
2013-09-17 22:53:00,69.0,64.0,26.76,SSE,159,8.0,9.0,83,0.00,,,-99.99,,2013-09-18 03:53:00,
2013-09-17 22:58:00,69.0,63.0,26.76,SSE,159,8.0,9.0,82,0.00,,,-99.99,,2013-09-18 03:58:00,
2013-09-17 23:08:00,69.0,64.0,26.76,South,173,7.0,8.0,83,0.00,,,-99.99,,2013-09-18 04:08:00,
2013-09-17 23:13:00,68.0,63.0,26.76,South,189,7.0,8.0,84,0.00,,,-99.99,,2013-09-18 04:13:00,
2013-09-17 23:18:00,68.0,63.0,26.76,South,180,7.0,8.0,85,0.00,,,-99.99,,2013-09-18 04:18:00,
2013-09-17 23:28:00,68.0,63.0,26.76,South,182,8.0,10.0,84,0.00,,,-99.99,,2013-09-18 04:28:00,
2013-09-17 23:33:00,68.0,63.0,26.76,SSW,195,9.0,10.0,84,0.00,,,-99.99,,2013-09-18 04:33:00,
2013-09-17 23:38:00,68.0,63.0,26.76,South,185,9.0,15.0,84,0.00,,,-99.99,,2013-09-18 04:38:00,
2013-09-17 23:48:00,68.0,64.0,26.76,South,188,8.0,9.0,86,0.00,,,-99.99,,2013-09-18 04:48:00,
2013-09-17 23:53:00,68.0,63.0,26.76,South,186,8.0,9.0,85,0.00,,,-99.99,,2013-09-18 04:53:00,
2013-09-17 23:58:00,68.0,64.0,26.76,South,189,8.0,8.0,86,0.00,,,-99.99,,2013-09-18 04:58:00,